Weather History for Plymouth, MA

Change the Weather History Date:

Friday, November 29, 2013

  Actual Average Record
Temperature  
Mean Temperature 28 °F -  
Max Temperature 36 °F 52 °F 69 °F (2011)
Min Temperature 21 °F 31 °F 17 °F (1996)
Degree Days  
Heating Degree Days 36    
Moisture  
Dew Point 11 °F    
Average Humidity 49    
Maximum Humidity 60    
Minimum Humidity 36    
Precipitation  
Precipitation 0.00 in - - ()
Sea Level Pressure  
Sea Level Pressure 30.58 in    
Wind  
Wind Speed 6 mph (NW)    
Max Wind Speed 12 mph    
Max Gust Speed 17 mph    
Visibility 10 miles    
Events      
Averages and records for this station are not official NWS values.
T = Trace of Precipitation, MM = Missing Value Source: NWS Daily Summary

Daily Weather History Graph

Daily Weather History Graph

Search for Another Location

Airport:

Trip Planner

Search our weather history database for the weather conditions in past years. The results will help you decide how hot, cold, wet, or windy it might be!

Date:

Astronomy

Nov. 29, 2013 Rise Set
Actual Time 6:49 AM EST 4:13 PM EST
Civil Twilight 6:18 AM EST 4:44 PM EST
Nautical Twilight 5:43 AM EST 5:18 PM EST
Astronomical Twilight 5:10 AM EST 5:52 PM EST
Moon 2:48 AM EST (11/29) 1:58 PM EST (11/29)
Length of Visible Light 10h 26m
Length of Day
9h 24m
Waning Crescent, 14% of the Moon is Illuminated
Nov 29
Waning Crescent
Dec 2
New
Dec 9
First Quarter
Dec 17
Full
Dec 25
Last Quarter

Hourly Weather History & Observations

Time (EST) Temp. Windchill Dew Point Humidity Pressure Visibility Wind Dir Wind Speed Gust Speed Precip Events Conditions
12:52 AM 23.0 °F 15.8 °F 10.0 °F 58% 30.46 in 10.0 mi WSW 5.8 mph - N/A   Partly Cloudy
1:52 AM 25.0 °F 18.1 °F 10.9 °F 55% 30.48 in 10.0 mi WNW 5.8 mph - N/A   Overcast
2:52 AM 25.0 °F 19.3 °F 12.0 °F 58% 30.48 in 10.0 mi WSW 4.6 mph - N/A   Overcast
3:52 AM 25.0 °F 19.3 °F 12.9 °F 60% 30.48 in 10.0 mi WSW 4.6 mph - N/A   Overcast
4:52 AM 26.1 °F 21.9 °F 12.9 °F 58% 30.49 in 10.0 mi West 3.5 mph - N/A   Overcast
5:52 AM 26.1 °F 20.5 °F 12.9 °F 58% 30.51 in 10.0 mi West 4.6 mph - N/A   Overcast
6:52 AM 26.1 °F 21.9 °F 14.0 °F 60% 30.52 in 10.0 mi West 3.5 mph - N/A   Overcast
7:52 AM 26.1 °F 21.9 °F 14.0 °F 60% 30.54 in 10.0 mi West 3.5 mph - N/A   Overcast
8:52 AM 28.9 °F 20.4 °F 14.0 °F 54% 30.56 in 10.0 mi NW 9.2 mph - N/A   Scattered Clouds
9:52 AM 32.0 °F 24.8 °F 12.0 °F 44% 30.57 in 10.0 mi NW 8.1 mph - N/A   Clear
10:52 AM 33.1 °F 25.5 °F 12.0 °F 42% 30.56 in 10.0 mi WNW 9.2 mph - N/A   Clear
11:52 AM 35.1 °F 27.9 °F 12.0 °F 39% 30.54 in 10.0 mi NW 9.2 mph - N/A   Clear
12:52 PM 35.1 °F 26.9 °F 12.0 °F 39% 30.55 in 10.0 mi WNW 11.5 mph - N/A   Clear
1:52 PM 36.0 °F 28.0 °F 10.9 °F 36% 30.55 in 10.0 mi NW 11.5 mph 17.3 mph N/A   Clear
2:52 PM 35.1 °F 29.3 °F 10.9 °F 37% 30.56 in 10.0 mi WNW 6.9 mph - N/A   Clear
3:52 PM 32.0 °F 25.6 °F 10.0 °F 40% 30.58 in 10.0 mi NNW 6.9 mph - N/A   Clear
4:52 PM 28.9 °F 22.8 °F 9.0 °F 43% 30.61 in 10.0 mi North 5.8 mph - N/A   Clear
5:52 PM 27.0 °F 23.0 °F 9.0 °F 47% 30.64 in 10.0 mi North 3.5 mph - N/A   Clear
6:52 PM 26.1 °F 19.4 °F 10.0 °F 51% 30.66 in 10.0 mi NNW 5.8 mph - N/A   Clear
7:52 PM 27.0 °F 17.3 °F 7.0 °F 43% 30.67 in 10.0 mi North 10.4 mph - N/A   Clear
8:52 PM 25.0 °F 18.1 °F 5.0 °F 43% 30.69 in 10.0 mi North 5.8 mph - N/A   Clear
9:52 PM 24.1 °F 18.2 °F 6.1 °F 46% 30.71 in 10.0 mi North 4.6 mph - N/A   Clear
10:52 PM 21.9 °F 15.7 °F 7.0 °F 53% 30.73 in 10.0 mi North 4.6 mph - N/A   Clear
11:52 PM 21.9 °F 13.4 °F 8.1 °F 55% 30.73 in 10.0 mi NNW 6.9 mph - N/A   Clear